User: anonymous   Login
Location: Allos
(44.2333°N, 6.6333°E)
Time: 07:48:45
(UTC+00:00)
Language:

YUBILEINY - Orbit

View from above orbital plane
View from above orbital plane
View from above satellite
View from above satellite

Ground track
Ground track

The orbit data is extracted from the following two-line orbital elements,

1 32953U 08025A   21128.79117067  .00000028  00000-0  12906-3 0  9990
2 32953  82.5022  75.5934 0020756  64.0745 296.2475 12.43101646588051
Epoch (UTC): 08 May 2021 18:59:17
Eccentricity: 0.0020756
inclination: 82.5022°
perigee height: 1477 km
apogee height: 1510 km
right ascension of ascending node: 75.5934°
argument of perigee: 64.0745°
revolutions per day: 12.43101646
mean anomaly at epoch: 296.2475°
orbit number at epoch: 58805

The dashed part of the orbit path shows where the satellite is in the earth's shadow,  

DLR